Regional Weather Roundup
Issued by NWS

Home | Current Version | Previous Version | Text Only | Print | Product List | Glossary Off
Versions: 1 2 3 4 5 6 7 8 9 10 11 12 13 14 15 16 17 18 19 20 21 22 23 24 25 26 27 28

000
ASUS45 KBOI 240310
RWRID
WEATHER ROUNDUP FOR IDAHO
NATIONAL WEATHER SERVICE BOISE ID
900 PM MDT THU OCT 23 2014

NOTE: "FAIR" INDICATES FEW OR NO CLOUDS BELOW 12000 FEET
WITH NO SIGNIFICANT WEATHER AND/OR OBSTRUCTIONS TO VISIBILITY

IDZ012-014-240400-
SOUTHWEST IDAHO


CITY           SKY/WX    TMP DP  RH WIND       PRES   REMARKS
BOISE          LGT RAIN  53  50  89 N6        30.07S
CALDWELL       CLOUDY    54  45  71 SE8       30.08S
MOUNTAIN HOME  CLOUDY    57  47  68 N7        30.06R
$$

IDZ016-017-240400-
SOUTHCENTRAL IDAHO


CITY           SKY/WX    TMP DP  RH WIND       PRES   REMARKS
BURLEY         CLOUDY    50  39  66 S5        30.08R
JEROME         CLOUDY    56  40  55 W14       30.08F
TWIN FALLS     CLOUDY    58  39  49 NW7       30.10R
$$

IDZ019>023-240400-
SOUTHEAST IDAHO


CITY           SKY/WX    TMP DP  RH WIND       PRES   REMARKS
IDAHO FALLS    CLOUDY    52  34  50 S6        30.10S
POCATELLO      CLEAR     48  34  58 S6        30.11R
REXBURG        CLOUDY    53  33  46 SW7       30.09R
$$

IDZ006-010-011-018-031-032-240400-
CENTRAL IDAHO MOUNTAINS


CITY           SKY/WX    TMP DP  RH WIND       PRES   REMARKS
MCCALL         LGT RAIN  44  41  89 S6        30.04R
HAILEY         LGT RAIN  48  45  87 SE6       30.12S
STANLEY          N/A     42  40  92 CALM      30.10R
SALMON         MOCLDY    54  41  62 CALM      29.97R
CHALLIS        CLOUDY    53  37  54 SW5       30.02R
$$

IDZ002-004-006-007-026-240400-
NORTHERN IDAHO


CITY           SKY/WX    TMP DP  RH WIND       PRES   REMARKS
LEWISTON       CLOUDY    54  48  80 NE5       29.96R
LOWELL           N/A     52  51  97 CALM      30.01R
COEUR D`ALENE  CLOUDY    50  45  81 S8        29.91R
MULLAN PASS    CLOUDY    34  34 100 SW8G16    29.93R WCI  27
$$



USA.gov is the U.S. government's official web portal to all federal, state and local government web resources and services.